Simultaneous Nadir Overpasses (SNOs) Predictions

Prediction of SNOs between GOES-16 and NOAA-19 Satellite Orbit:

Table of predicted SNOs for the next 14.0 days since TLE Epoch: 2/16/2018
Index Date Time (GOES-16) GOES-16 Lat,Lon NOAA-19 Lat,Lon Distance(km) Time Diff (sec)
1 02/17/2018 08:58:33 -0.02, -75.19 0.50, -77.41 253.27 80
2 02/18/2018 08:44:22 -0.02, -75.19 -0.13, -74.60 67.41 80
3 02/19/2018 08:32:52 -0.02, -75.20 -0.83, -71.80 388.13 80
4 02/21/2018 20:54:15 0.02, -75.20 -0.35, -76.88 190.98 80
5 02/22/2018 20:45:24 0.02, -75.21 0.30, -74.07 130.17 80
6 02/23/2018 20:33:52 0.02, -75.21 0.95, -71.26 451.31 80
7 02/25/2018 09:06:49 -0.03, -75.22 0.90, -79.15 448.97 80
8 02/26/2018 08:55:17 -0.03, -75.23 0.25, -76.34 127.82 80
9 02/27/2018 08:41:07 -0.03, -75.23 -0.45, -73.55 193.57 80
10 03/01/2018 21:02:30 0.04, -75.26 -0.73, -78.62 383.79 80




NCC Satellite Simultaneous Nadir Overpasses (SNOs) Prediction Service
